Temp
1 1 1 1 1 1 2 2 2 2 1 2 2 4 4 5 6 6 8 8 8 8 8 8 8 8 7 7 7 9 9 11 9 9 9 9 9 10 11 13 12 11 14 11
2 2 1 2 2 2 2 1 0 1 2 3 3 5 6 5 7 8 9 8 8 7 8 8 8 8 8 7 8 8 9 10 10 10 11 10 11 10 10 10 11 10 13 11
4 3 2 3 3 4 3 2 2 1 1 2 5 5 4 5 7 8 8 7 8 8 8 8 8 8 8 7 8 6 8 9 8 11 9 9 10 10 11 11 12 13 11 10
5 5 4 3 4 4 5 2 2 2 3 4 6 5 4 7 7 8 8 9 9 9 9 8 8 8 9 8 7 8 10 7 6 8 8 9 9 10 11 10 10 12 11 11
6 5 5 5 5 5 4 3 3 2 3 3 6 6 6 7 6 7 8 9 7 9 9 9 9 9 9 8 9 8 8 7 7 7 9 9 9 9 10 10 10 11 11 10
5 6 6 5 4 5 4 4 4 5 3 4 6 6 6 7 7 6 5 7 9 8 7 7 6 7 7 7 9 8 8 8 7 9 8 9 10 9 9 9 9 10 11 9
5 5 4 3 4 5 6 5 5 5 4 5 6 6 6 6 5 7 5 5 8 6 6 6 7 8 8 9 8 7 8 7 7 8 9 10 8 7 7 8 8 8 8 7
4 3 3 4 4 4 5 5 5 4 5 5 6 6 6 5 5 5 5 4 5 6 6 9 9 9 9 9 8 8 8 8 8 9 10 9 8 7 8 8 8 7 7 6
3 3 3 3 4 4 5 5 4 4 6 3 1 4 5 7 6 6 5 5 6 6 8 8 8 8 7 8 8 8 8 9 10 8 9 10 9 7 6 7 9 6 6 6
2 3 3 4 4 5 5 6 6 6 2 0 2 4 5 3 5 6 5 5 6 6 8 8 8 8 6 8 8 8 8 8 8 9 8 9 8 7 5 9 9 5 5 5
2 2 3 3 3 4 5 6 6 6 3 0 2 2 2 3 4 8 5 6 7 7 8 8 7 8 7 7 6 7 8 8 8 8 8 8 5 6 8 7 3 4 3 3
3 2 2 3 3 3 5 6 5 5 5 1 2 2 3 3 3 3 4 5 5 5 7 6 6 7 5 6 9 5 7 8 8 8 9 5 3 4 4 4 4 3 3 2
2 3 2 2 3 3 3 4 5 5 3 1 1 2 3 3 4 3 4 5 5 5 5 5 6 7 6 8 8 6 5 4 7 7 6 5 4 3 3 3 2 2 2 2
1 2 2 2 2 3 3 3 4 4 4 4 2 2 2 3 4 4 4 4 5 5 4 5 6 7 3 7 5 6 6 4 6 7 6 3 3 2 2 2 2 1 1 1
1 1 2 2 2 2 3 3 4 4 4 3 0 1 2 2 3 4 4 4 4 4 4 5 6 3 3 2 3 5 4 7 7 9 5 5 4 3 2 1 1 1 1 0
1 1 1 2 2 2 2 3 4 4 4 4 2 1 1 1 2 2 3 3 4 4 3 3 0 0 2 4 6 6 3 4 4 5 3 3 3 2 2 1 0 0 0 -0
1 1 1 2 3 2 2 2 2 3 3 3 -0 0 0 1 1 2 3 3 3 3 2 1 2 0 0 3 6 6 3 3 2 2 2 1 1 1 1 0 0 0 -0 -0
1 1 0 1 2 2 2 2 2 2 3 3 -1 -0 -0 0 1 1 2 2 2 1 -0 -0 1 -1 -0 3 4 2 2 1 1 1 1 1 2 1 0 -0 -0 -0 -0 -1
0 0 0 1 1 2 2 2 2 2 2 2 -1 1 2 -0 -0 0 1 1 3 -0 1 1 0 2 2 5 3 1 2 2 2 1 1 1 0 -0 -0 -0 -0 -0 -1 -1
-0 0 1 1 1 1 2 2 1 2 2 1 0 -1 0 -1 -2 -1 0 -1 2 1 1 -2 0 3 3 2 3 3 3 2 1 0 -0 0 0 0 -0 -0 -1 -1 -2 -2
0 1 1 1 2 1 2 1 1 0 0 -1 -2 -2 -1 -1 1 2 -1 0 -1 1 0 0 2 2 2 1 2 2 2 1 1 1 1 0 0 -0 -1 -1 -1 -2 -3 -3
1 1 1 1 1 1 -0 -2 -2 -2 1 -3 -2 -2 -1 -1 -1 0 -2 -0 -2 1 -2 -1 1 2 1 1 1 1 1 1 0 0 -0 -0 -1 -1 -1 -2 -2 -3 -3 -3
0 1 1 0 -1 -1 -1 -0 -0 -2 -2 -3 -3 -2 -1 -2 -1 -2 -1 -1 -0 -2 -1 1 2 -1 0 0 0 0 -0 -0 -0 -1 -1 -1 -1 -2 -2 -3 -3 -4 -4 -4
0 0 -1 -0 -1 -2 -1 -0 -0 -1 -2 -2 -2 -3 -1 -2 -1 -1 -1 -1 -1 -2 -2 1 1 0 1 0 0 0 -0 -0 -1 -1 -1 -1 -2 -2 -3 -4 -4 -5 -5 -6
-0 -1 -1 -2 -1 -2 -2 -1 -2 -2 -2 -2 -1 -2 -2 -2 -2 -1 -1 -2 -2 -1 2 2 -0 1 1 0 -0 -0 -1 -1 -1 -1 -2 -2 -3 -4 -4 -5 -5 -6 -7 -7
-1 -2 -3 -4 -4 -4 -4 -3 -2 -1 -2 -1 -1 -2 -2 -0 -2 -2 -2 -1 1 3 -1 -0 1 1 0 -0 -0 -1 -1 -1 -1 -2 -3 -3 -4 -5 -5 -6 -7 -7 -8 -9
-2 -3 -2 -2 -2 -1 -1 -1 -1 -1 -2 -1 -2 -1 1 -4 -2 -2 -1 -1 2 -1 -1 0 1 1 0 -0 -1 -1 -1 -2 -2 -3 -4 -5 -5 -6 -6 -7 -8 -8 -9 -9
Height
1442 1439 1437 1433 1431 1428 1429 1430 1435 1447 1451 1458 1459 1455 1456 1455 1454 1454 1454 1455 1456 1455 1456 1455 1457 1460 1462 1461 1460 1455 1456 1447 1453 1453 1453 1454 1451 1443 1440 1429 1437 1440 1428 1450
1435 1434 1433 1434 1431 1432 1431 1437 1447 1456 1457 1457 1458 1457 1455 1456 1455 1453 1452 1455 1456 1458 1455 1456 1460 1461 1462 1461 1458 1457 1456 1453 1452 1451 1451 1449 1446 1446 1443 1441 1440 1448 1432 1451
1428 1428 1429 1431 1433 1433 1432 1440 1451 1459 1458 1459 1457 1458 1459 1458 1456 1454 1454 1456 1456 1456 1456 1459 1462 1462 1462 1462 1460 1459 1458 1459 1461 1452 1460 1458 1448 1448 1445 1442 1440 1439 1448 1457
1423 1425 1427 1430 1433 1435 1436 1441 1452 1457 1459 1461 1460 1462 1461 1455 1456 1455 1455 1456 1456 1455 1456 1460 1462 1463 1463 1463 1462 1461 1458 1466 1471 1466 1463 1460 1457 1455 1452 1453 1453 1447 1455 1453
1426 1426 1429 1433 1437 1438 1439 1445 1451 1457 1460 1461 1461 1461 1460 1457 1460 1459 1456 1457 1460 1456 1457 1460 1462 1462 1462 1463 1461 1462 1464 1470 1471 1469 1461 1459 1460 1460 1457 1456 1456 1456 1456 1459
1434 1433 1436 1439 1441 1442 1443 1448 1451 1454 1463 1463 1461 1463 1463 1461 1460 1463 1463 1462 1460 1461 1466 1466 1466 1465 1465 1465 1463 1462 1463 1468 1469 1465 1467 1459 1457 1464 1463 1462 1462 1461 1455 1464
1445 1443 1443 1445 1446 1447 1448 1450 1452 1455 1463 1463 1464 1464 1464 1464 1463 1462 1466 1465 1463 1470 1469 1469 1469 1467 1466 1465 1466 1466 1464 1469 1471 1465 1464 1461 1467 1470 1470 1468 1467 1467 1468 1470
1454 1453 1452 1451 1451 1452 1453 1452 1453 1455 1461 1465 1465 1465 1466 1466 1466 1467 1469 1468 1468 1470 1470 1468 1466 1466 1465 1467 1469 1467 1467 1466 1468 1461 1459 1466 1468 1470 1470 1467 1467 1471 1469 1471
1460 1458 1459 1458 1457 1455 1455 1453 1452 1455 1459 1468 1468 1469 1468 1466 1468 1469 1472 1472 1471 1471 1471 1469 1469 1466 1472 1468 1467 1469 1468 1467 1462 1465 1462 1456 1465 1471 1472 1472 1463 1473 1473 1474
1465 1464 1463 1462 1461 1459 1457 1456 1456 1457 1460 1467 1469 1470 1470 1471 1471 1470 1473 1472 1472 1471 1469 1469 1469 1470 1478 1469 1469 1469 1468 1468 1466 1464 1464 1463 1469 1472 1472 1465 1467 1472 1472 1473
1469 1467 1466 1465 1463 1462 1461 1460 1459 1460 1461 1467 1468 1469 1471 1471 1471 1469 1474 1474 1473 1472 1470 1472 1474 1472 1475 1474 1475 1471 1469 1467 1466 1469 1467 1465 1471 1473 1468 1470 1470 1471 1472 1473
1472 1470 1468 1468 1466 1465 1464 1462 1461 1461 1462 1468 1469 1470 1470 1471 1471 1472 1473 1474 1473 1473 1472 1476 1476 1472 1478 1475 1464 1477 1471 1469 1466 1468 1462 1469 1469 1470 1469 1469 1470 1471 1472 1473
1471 1470 1469 1469 1469 1468 1467 1465 1463 1463 1464 1470 1470 1470 1471 1471 1471 1472 1474 1473 1473 1472 1472 1474 1475 1472 1475 1467 1467 1471 1472 1474 1469 1469 1468 1467 1468 1468 1468 1468 1469 1470 1470 1470
1470 1468 1467 1468 1469 1470 1470 1468 1466 1466 1466 1467 1471 1469 1470 1470 1470 1471 1472 1472 1472 1473 1473 1473 1472 1471 1477 1471 1472 1471 1468 1472 1467 1465 1463 1465 1465 1465 1466 1467 1468 1468 1468 1469
1470 1468 1467 1467 1467 1468 1470 1470 1469 1467 1469 1467 1469 1470 1470 1469 1469 1470 1471 1472 1472 1472 1473 1473 1472 1475 1476 1477 1476 1466 1463 1460 1460 1454 1460 1460 1462 1462 1464 1465 1466 1466 1466 1465
1467 1467 1467 1466 1466 1468 1470 1471 1470 1469 1467 1467 1468 1469 1469 1469 1469 1469 1470 1471 1472 1472 1472 1473 1474 1473 1476 1472 1464 1455 1455 1456 1457 1458 1459 1459 1460 1461 1462 1463 1464 1463 1463 1463
1464 1466 1466 1465 1464 1468 1471 1471 1471 1469 1469 1468 1468 1468 1468 1468 1469 1470 1469 1470 1471 1472 1472 1473 1473 1474 1474 1471 1458 1451 1452 1454 1455 1457 1458 1459 1459 1460 1460 1461 1462 1461 1461 1460
1464 1465 1465 1467 1465 1466 1471 1470 1469 1469 1469 1468 1468 1467 1467 1467 1469 1470 1469 1469 1470 1471 1472 1473 1473 1474 1473 1463 1448 1449 1450 1452 1454 1455 1456 1457 1457 1458 1459 1460 1460 1459 1457 1456
1465 1466 1467 1470 1469 1467 1467 1469 1468 1468 1472 1466 1465 1462 1463 1466 1467 1469 1470 1469 1469 1471 1470 1471 1473 1467 1460 1443 1444 1445 1446 1449 1451 1453 1455 1455 1456 1457 1457 1457 1456 1455 1453 1451
1464 1467 1466 1467 1469 1468 1467 1467 1470 1467 1465 1463 1459 1460 1463 1465 1466 1468 1470 1470 1469 1467 1468 1469 1467 1451 1440 1439 1440 1441 1443 1447 1450 1452 1453 1454 1454 1455 1454 1453 1451 1449 1447 1445
1465 1463 1466 1466 1463 1469 1468 1466 1469 1466 1462 1457 1457 1458 1460 1463 1463 1464 1468 1468 1471 1466 1465 1466 1456 1444 1433 1433 1436 1439 1442 1445 1448 1450 1450 1452 1452 1452 1450 1448 1446 1444 1441 1438
1465 1467 1465 1465 1464 1466 1470 1467 1467 1467 1458 1457 1458 1457 1458 1460 1461 1462 1466 1466 1470 1461 1467 1466 1448 1429 1428 1430 1433 1436 1439 1443 1446 1448 1448 1449 1448 1447 1445 1443 1441 1438 1435 1432
1465 1467 1463 1464 1465 1465 1468 1465 1460 1462 1455 1456 1458 1459 1457 1458 1460 1461 1463 1465 1463 1465 1463 1449 1429 1425 1426 1430 1433 1436 1439 1442 1444 1445 1446 1445 1444 1442 1440 1438 1435 1432 1428 1425
1462 1462 1464 1459 1460 1453 1447 1451 1452 1452 1452 1453 1456 1459 1457 1456 1458 1459 1459 1461 1462 1463 1460 1433 1419 1418 1423 1428 1432 1435 1438 1440 1441 1442 1442 1441 1440 1438 1436 1433 1429 1426 1422 1418
1459 1458 1456 1449 1444 1445 1444 1442 1447 1448 1449 1452 1456 1457 1458 1457 1458 1456 1457 1461 1456 1446 1425 1416 1414 1416 1422 1427 1430 1433 1436 1437 1439 1439 1439 1437 1435 1433 1430 1427 1424 1420 1415 1411
1454 1448 1444 1441 1443 1444 1443 1440 1441 1445 1446 1452 1453 1455 1456 1449 1450 1452 1446 1445 1431 1412 1415 1412 1413 1417 1422 1426 1429 1432 1434 1434 1435 1436 1435 1433 1431 1428 1425 1422 1418 1415 1410 1405
1442 1435 1434 1438 1435 1438 1439 1438 1437 1443 1447 1447 1449 1450 1440 1449 1446 1442 1434 1424 1409 1408 1410 1412 1415 1418 1423 1426 1429 1431 1432 1432 1433 1432 1430 1429 1427 1424 1421 1417 1414 1410 1406 1401
Wind_Speed
29 24 19 18 21 18 21 21 4 22 30 4 2 1 3 3 2 3 2 3 4 2 2 4 3 3 1 8 3 2 3 3 4 3 2 3 4 6 4 3 3 4 4 4
29 18 13 12 14 16 24 12 12 21 7 2 1 3 3 2 1 1 2 2 2 1 2 4 2 0 2 6 3 4 4 3 2 3 2 2 4 5 5 1 1 4 2 5
13 6 3 5 9 17 19 8 3 3 5 4 1 5 3 2 4 3 5 4 3 3 6 6 3 1 2 5 5 5 1 4 4 3 2 3 2 6 9 5 4 5 7 10
8 4 1 6 15 13 10 7 4 4 1 4 5 2 3 5 4 3 6 4 3 2 4 3 3 1 1 1 6 2 2 4 4 5 4 1 3 5 7 5 4 5 5 6
13 8 12 22 18 12 15 6 5 6 5 3 2 3 2 4 2 6 4 5 5 4 5 4 3 2 1 1 2 2 2 4 2 2 5 4 5 7 4 6 4 7 6 8
19 18 22 27 20 20 17 19 15 6 3 2 1 3 4 3 1 5 6 4 6 11 5 4 5 8 8 5 2 2 2 3 1 2 2 1 3 6 6 3 3 2 2 4
20 18 22 19 7 13 18 15 8 5 4 3 3 2 4 5 4 4 4 6 2 3 12 9 6 9 10 11 10 4 3 2 1 1 2 2 3 2 3 3 3 2 1 3
17 13 20 19 20 14 12 11 5 5 5 4 4 7 5 4 10 5 4 6 7 7 2 0 0 1 1 6 6 8 4 2 2 0 1 1 2 1 0 2 1 2 2 4
12 12 10 8 11 11 9 9 11 9 9 3 3 2 1 3 2 2 3 6 3 1 2 1 1 2 2 1 1 3 2 4 1 1 1 2 3 3 0 1 2 3 3 4
8 9 10 8 9 10 11 9 10 7 9 3 4 1 2 2 2 3 0 2 1 4 2 2 1 1 2 1 1 1 1 1 0 2 2 1 2 1 1 3 3 7 7 7
3 6 6 2 6 12 12 7 3 4 6 6 5 4 2 2 0 1 4 2 1 1 1 1 1 1 1 2 1 1 2 1 1 1 2 1 3 2 3 3 2 5 5 5
8 6 6 6 4 9 11 5 6 8 4 7 10 8 6 4 3 3 3 1 1 1 2 2 2 2 2 1 2 2 3 2 1 3 1 2 3 2 2 3 2 4 5 5
8 13 8 11 8 5 8 5 4 4 8 6 5 4 4 3 3 4 2 2 3 2 3 3 1 2 2 2 3 2 3 3 3 3 3 6 5 6 6 6 5 6 6 6
7 9 4 7 9 7 5 5 1 4 5 3 2 4 3 2 3 4 3 3 4 4 3 1 1 2 3 1 1 3 1 6 3 4 5 3 8 9 6 7 6 5 5 6
6 4 5 2 3 6 9 6 3 1 2 4 3 5 3 3 4 4 5 5 5 3 1 1 1 2 2 0 2 4 9 5 5 3 4 1 2 3 11 9 7 6 6 7
5 4 3 4 2 5 6 3 6 3 1 1 2 4 6 4 4 5 6 6 4 2 1 1 2 2 1 2 3 4 10 10 7 2 5 5 4 3 6 7 7 7 8 9
6 4 5 5 3 6 3 2 5 4 3 2 2 1 3 6 4 4 4 4 2 2 1 1 2 2 2 2 5 3 10 12 11 9 6 4 6 3 7 7 7 7 9 10
5 2 4 6 5 9 3 6 5 5 4 3 2 0 1 7 3 2 3 2 2 1 2 2 2 2 2 5 9 5 9 10 9 10 9 5 5 6 5 5 7 9 12 13
3 2 3 1 3 5 4 8 6 7 4 3 2 3 3 9 4 3 2 3 2 2 2 3 3 3 6 6 7 12 15 12 9 12 8 6 5 5 6 7 10 14 16 17
3 7 2 1 2 3 2 2 2 4 5 6 3 5 3 6 3 2 2 0 1 2 2 3 3 4 17 13 8 9 15 13 11 12 7 7 7 6 7 11 14 17 19 19
3 3 1 1 3 2 2 1 2 2 3 5 3 6 4 6 2 3 4 2 1 2 2 2 3 4 3 7 16 10 15 15 11 7 5 4 5 8 12 15 18 19 20 21
3 1 2 3 3 2 2 1 3 3 3 1 3 4 4 6 4 3 3 2 1 3 4 2 3 4 7 9 15 15 14 14 10 7 5 5 8 12 16 20 21 20 22 24
5 2 2 1 2 3 4 4 2 2 3 6 4 2 4 5 3 4 2 4 3 5 2 4 4 3 9 13 14 15 14 11 8 6 6 9 13 16 18 20 21 22 25 27
6 4 4 4 4 5 5 3 2 2 4 10 11 2 2 3 3 2 3 2 3 3 3 6 2 14 15 17 16 14 12 9 7 6 9 12 15 17 18 19 21 23 25 26
5 5 5 6 6 4 4 4 4 5 6 17 6 1 2 1 2 2 3 4 5 6 5 2 8 18 18 20 17 13 11 8 6 8 11 13 16 18 20 22 23 24 24 24
6 7 3 6 0 3 5 8 8 7 16 14 3 1 2 5 3 4 8 5 6 3 3 8 18 19 18 18 15 12 8 5 7 9 12 15 17 19 21 22 21 22 22 22
7 8 15 9 2 4 5 5 6 12 18 3 3 4 4 2 2 4 5 5 2 4 12 18 18 18 18 16 13 9 6 4 7 10 14 16 17 17 19 20 19 20 20 20
Wind_Direction
334 337 339 357 5 43 80 70 65 138 148 89 27 37 2 335 65 244 117 102 100 129 142 91 100 87 20 351 297 9 360 18 60 16 329 278 283 338 323 333 53 38 61 85
333 333 343 356 21 86 91 79 82 136 38 112 187 227 54 256 110 45 120 96 57 207 86 93 80 257 17 4 37 13 359 32 131 139 180 170 12 355 346 41 59 50 10 114
330 317 322 15 71 104 97 97 100 89 39 58 314 24 357 87 19 56 71 111 111 123 72 48 111 90 359 355 11 23 7 60 31 40 44 316 316 17 11 2 34 45 46 131
0 347 320 114 128 111 97 69 81 124 100 68 107 62 322 103 43 38 33 74 49 100 98 79 84 71 68 95 358 41 15 76 65 45 349 313 30 28 30 59 31 48 119 129
49 84 119 124 107 99 94 107 133 90 119 90 72 12 22 103 124 0 29 95 46 72 82 28 132 167 57 29 13 77 29 132 145 41 352 18 67 42 38 46 30 79 115 106
64 89 116 127 91 78 95 106 107 105 128 105 132 38 350 60 125 59 46 72 81 74 50 49 65 80 85 72 10 69 56 136 209 113 5 18 93 15 14 10 42 8 55 71
59 88 111 126 112 89 110 113 113 102 123 143 81 30 55 39 24 102 27 31 59 80 104 91 93 78 76 61 50 23 111 106 17 120 219 175 75 348 305 303 352 347 92 68
50 94 113 98 89 82 69 63 112 118 120 123 82 53 109 93 64 60 51 29 112 137 350 214 72 60 144 30 32 33 31 131 98 234 66 91 125 142 224 296 165 332 261 148
50 102 131 71 58 53 51 51 85 112 126 75 81 21 345 86 70 75 51 70 93 38 47 26 28 38 356 14 358 23 19 47 305 169 222 193 94 151 198 211 211 173 217 173
60 124 93 76 55 28 34 85 92 81 101 119 124 125 59 79 91 80 333 348 46 28 36 46 9 66 324 276 287 343 336 360 127 162 268 235 158 189 266 233 81 166 187 187
76 176 171 129 15 21 38 80 82 102 105 119 138 141 142 143 163 170 150 162 190 111 113 276 146 251 121 271 289 293 283 232 194 186 218 249 151 168 231 54 128 175 190 189
329 293 234 236 285 9 8 32 68 107 121 134 122 116 113 126 139 122 151 45 150 161 121 184 164 194 186 310 281 171 242 252 326 241 27 110 180 256 234 205 191 205 203 208
21 340 267 248 245 318 0 17 81 102 111 107 134 134 118 123 156 156 190 212 189 198 159 140 111 244 186 234 229 260 216 192 241 269 168 225 228 247 232 225 221 215 218 237
349 9 277 241 253 265 299 331 347 121 129 127 185 176 176 175 181 199 212 244 196 167 153 139 172 245 200 242 337 254 27 168 214 255 244 244 238 228 227 222 219 227 253 271
305 3 271 261 261 257 272 279 309 225 223 153 156 175 189 178 178 192 205 191 192 191 186 177 189 124 190 127 266 241 191 191 201 257 150 195 153 228 223 225 234 252 271 284
278 309 258 239 235 220 218 277 257 250 161 210 151 212 196 187 160 156 173 190 206 209 193 140 148 178 235 237 249 238 205 209 207 203 195 204 221 215 209 221 240 264 282 293
228 263 219 259 200 184 201 273 302 234 239 260 104 231 209 198 184 177 160 172 189 188 163 179 169 173 208 249 246 199 204 207 215 216 197 202 215 231 225 236 257 274 285 293
173 242 209 248 214 177 263 306 291 230 266 258 141 197 195 185 196 200 181 167 173 31 168 176 208 169 218 253 239 217 192 190 195 193 201 220 220 214 222 248 274 287 290 294
189 132 132 187 205 180 223 302 281 234 251 270 198 185 198 169 160 165 168 177 208 224 225 209 192 185 227 235 210 198 194 190 198 189 196 209 221 232 251 272 285 287 291 291
132 146 135 184 254 241 313 324 263 230 229 230 220 154 160 166 150 147 138 326 204 223 177 152 224 253 248 233 218 213 199 195 185 179 203 227 245 253 270 285 290 291 291 292
196 186 245 307 148 191 254 135 257 293 264 216 185 178 143 188 156 150 198 165 172 239 144 231 237 259 225 206 200 192 189 191 188 209 224 227 263 287 293 297 299 297 295 290
180 178 140 145 159 107 338 256 307 223 270 193 182 178 144 159 162 131 160 164 177 246 137 224 250 241 190 181 183 183 181 189 197 205 225 265 288 296 301 303 303 300 294 290
157 237 193 209 236 114 197 232 224 259 203 184 173 177 163 143 157 95 138 175 208 130 208 238 239 188 177 172 168 167 172 178 190 216 256 282 297 305 307 307 308 303 296 296
186 191 260 196 204 229 183 196 217 252 232 181 165 159 232 141 147 152 146 159 168 209 237 235 216 190 173 173 171 174 176 186 207 246 280 295 303 306 312 314 311 308 306 306
200 182 228 216 228 234 205 213 245 235 193 166 141 149 205 153 150 194 131 179 235 223 232 228 176 160 169 174 175 177 182 195 239 275 292 303 309 314 317 315 315 316 315 316
222 225 234 221 335 230 222 217 225 216 172 168 190 184 239 222 184 178 211 180 224 230 216 171 152 155 163 169 174 182 196 221 268 290 307 312 315 318 320 323 322 322 324 325
218 234 217 219 220 223 223 210 164 177 163 202 160 195 233 103 212 242 196 217 251 187 156 152 155 156 160 164 169 185 211 256 292 308 313 316 320 324 324 327 335 338 335 334